[[{"header":{"parameterUnit":"m.s-1","parameterCategory":1,"la1":30.2991,"la2":30.254,"lo1":-89.0895,"lo2":-89.0444,"dy":0.0017,"dx":0.0017,"nx":28,"ny":28,"refTime":"2024-03-30T03:00:00:Z","depth":0,"parameterNumber":2,"parameterNumberName":"U-component_of_WINDS"},"data":[0,0,0,0,0,0,0,0,0,0,0,0,0,0,0,0,0,0,0,0,0,0,0,0,0,0,0,0,0,0,0,0,0,0,0,0,0,0,0,0,0,0,0,0,0,0,0,0,0,0,0,0,0,0,0,0,0,0,-1.6432,-1.6431,0,-1.631,-1.6309,-1.6308,-1.6202,-1.6201,-1.62,-1.6199,-1.6069,-1.6066,-1.6064,0,0,0,0,0,0,0,0,0,0,0,0,0,-1.6568,-1.6566,-1.6432,-1.6431,-1.6429,-1.6311,-1.6309,-1.6307,-1.6203,-1.6201,-1.62,-1.6198,-1.6069,-1.6066,-1.6064,0,0,0,0,0,0,0,0,0,0,0,0,0,-1.6484,-1.6565,-1.6432,-1.6363,-1.6355,-1.6311,-1.6309,-1.6307,-1.6203,-1.6201,-1.6199,-1.6198,-1.607,-1.6067,-1.6063,-1.6076,0,0,-1.6052,-1.6051,0,0,0,0,0,0,0,0,-1.6489,-1.6479,-1.6374,-1.6367,-1.6359,-1.627,-1.6309,-1.6229,-1.6203,-1.6261,-1.6199,-1.6197,-1.6137,-1.6127,-1.6108,-1.607,-1.6065,-1.6052,-1.605,-1.6048,-1.6047,0,0,0,0,0,0,0,-1.6495,-1.6484,-1.6384,-1.6373,-1.6364,-1.6336,-1.6322,-1.6293,-1.621,-1.6255,-1.6247,-1.6235,-1.6132,-1.6112,-1.6104,-1.6063,-1.6052,-1.6049,-1.6047,-1.6045,-1.6028,-1.603,0,0,0,0,0,0,-1.6512,-1.6489,-1.6388,-1.638,-1.6421,-1.6335,-1.6319,-1.63,-1.621,-1.6194,-1.6236,-1.623,-1.6119,-1.6109,-1.6099,-1.6108,-1.6048,-1.6045,-1.6043,-1.6027,-1.6029,-1.603,0,0,0,0,0,0,-1.6515,-1.6504,-1.6392,-1.6432,-1.6416,-1.6334,-1.6314,-1.6299,-1.6279,-1.6196,-1.6179,-1.6232,-1.6117,-1.6104,-1.6083,-1.6102,-1.6043,-1.604,-1.6025,-1.6027,-1.603,-1.6126,0,0,0,0,0,0,-1.652,-1.6506,-1.6511,-1.6433,-1.6415,-1.638,-1.6315,-1.6298,-1.6273,-1.6264,-1.6187,-1.6172,-1.6115,-1.6089,-1.608,-1.6096,-1.6037,-1.6022,-1.6026,-1.6029,-1.6121,-1.6131,-1.6141,0,0,0,0,0,-1.6525,-1.6542,-1.6512,-1.6501,-1.642,-1.6382,-1.637,-1.6306,-1.6276,-1.6279,-1.6226,-1.6175,-1.6102,-1.6088,-1.6076,-1.6092,-1.6021,-1.6025,-1.6028,-1.6116,-1.6129,-1.614,0,0,0,0,0,0,-1.6622,-1.6531,-1.6496,-1.6489,-1.6444,-1.6364,-1.6367,-1.6322,-1.6283,-1.6275,-1.6195,-1.6178,-1.6165,-1.6126,-1.6112,-1.6099,-1.6054,-1.6056,-1.6125,-1.6137,-1.6147,-1.6156,-1.6034,0,0,0,0,0,-1.6644,-1.6622,-1.6542,-1.6544,-1.6523,-1.6449,-1.643,-1.6384,-1.6333,-1.6313,-1.6258,-1.6209,-1.6175,-1.6154,-1.6118,-1.6115,-1.6096,-1.612,-1.613,-1.6139,-1.6141,-1.6135,-1.6144,-1.6043,-1.6043,-1.6043,0,0,-1.6686,-1.6633,-1.6624,-1.6562,-1.6521,-1.6499,-1.6434,-1.6413,-1.6394,-1.6309,-1.6286,-1.6244,-1.6184,-1.6172,-1.6164,-1.6139,-1.6165,-1.6144,-1.6151,-1.6148,-1.614,-1.6149,-1.6158,-1.6045,-1.6045,-1.6045,0,0,-1.6751,-1.6711,-1.6707,-1.6668,-1.6609,-1.6559,-1.6559,-1.6485,-1.6455,-1.6431,-1.6366,-1.6343,-1.6286,-1.6245,-1.6218,-1.6269,-1.622,-1.6259,-1.6311,-1.6306,-1.6314,-1.6321,-1.6338,-1.6345,-1.6262,-1.6262,-1.6262,0,-1.6811,-1.6776,-1.671,-1.6693,-1.6667,-1.6591,-1.6585,-1.6551,-1.6482,-1.6465,-1.6439,-1.6366,-1.632,-1.6297,-1.631,-1.629,-1.6285,-1.6267,-1.6319,-1.6325,-1.633,-1.6345,-1.6352,-1.6267,-1.6267,-1.6266,-1.6266,0,-1.6852,-1.6829,-1.6833,-1.677,-1.6745,-1.6734,-1.6664,-1.6646,-1.6602,-1.6556,-1.6531,-1.6474,-1.6425,-1.6416,-1.6373,-1.6387,-1.6373,-1.6335,-1.6287,-1.6346,-1.6359,-1.6364,-1.6275,-1.6273,-1.6271,-1.627,0,0,-1.6974,-1.6876,-1.6878,-1.6849,-1.6778,-1.6758,-1.6743,-1.6697,-1.6682,-1.6638,-1.6622,-1.6576,-1.654,-1.6508,-1.646,-1.6456,-1.6499,-1.6417,-1.6414,-1.6433,-1.6508,-1.6537,-1.6545,-1.6467,-1.6468,-1.6468,-1.6513,0,-1.7026,-1.6997,-1.6937,-1.6926,-1.6903,-1.6831,-1.6818,-1.6772,-1.6728,-1.6701,-1.6651,-1.662,-1.6575,-1.6555,-1.6549,-1.6495,-1.6513,-1.6491,-1.6449,-1.6448,-1.6465,-1.6552,-1.6582,-1.6627,-1.6518,-1.6519,-1.6519,0,-1.7084,-1.7045,-1.7033,-1.6964,-1.6952,-1.6941,-1.6894,-1.6869,-1.6815,-1.6783,-1.6749,-1.6697,-1.6675,-1.6634,-1.6602,-1.6589,-1.6568,-1.6539,-1.6539,-1.6531,-1.6486,-1.6545,-1.664,-1.6646,-1.6527,-1.6526,-1.6525,0,-1.7172,-1.7117,-1.7102,-1.708,-1.6999,-1.6993,-1.6959,-1.6903,-1.6879,-1.6838,-1.6821,-1.6777,-1.6752,-1.6718,-1.6654,-1.663,-1.6629,-1.6582,-1.66,-1.6601,-1.6601,-1.6602,-1.6693,-1.6591,-1.6591,-1.6591,-1.6591,0,-1.7236,-1.7231,-1.7141,-1.7132,-1.7123,-1.7054,-1.7047,-1.7005,-1.6957,-1.6937,-1.6871,-1.6854,-1.6771,-1.6743,-1.6693,-1.6673,-1.6663,-1.6635,-1.6621,-1.664,-1.6643,-1.6624,-1.6618,-1.6592,-1.6592,-1.6592,-1.6591,0,-1.7333,-1.7273,-1.7252,-1.7178,-1.7159,-1.7156,-1.7091,-1.7078,-1.7031,-1.7007,-1.6997,-1.6922,-1.6886,-1.682,-1.6764,-1.673,-1.672,-1.6698,-1.6739,-1.6731,-1.6751,-1.675,-1.6831,-1.6838,-1.6735,-1.6736,-1.6737,0,-1.7377,-1.7371,-1.7297,-1.728,-1.7249,-1.7222,-1.7198,-1.713,-1.7107,-1.7045,-1.704,-1.6999,-1.6962,-1.6907,-1.6847,-1.6804,-1.6779,-1.681,-1.6771,-1.679,-1.6777,-1.6778,-1.6776,-1.6819,-1.682,-1.6821,-1.6822,0,-1.7461,-1.7432,-1.7401,-1.7359,-1.7333,-1.7296,-1.7256,-1.7245,-1.7167,-1.7144,-1.7108,-1.708,-1.7024,-1.6984,-1.6932,-1.6894,-1.6844,-1.6836,-1.6837,-1.6855,-1.6878,-1.6864,-1.6761,-1.6833,-1.6832,-1.6831,-1.6831,-1.683,-1.7531,-1.7523,-1.747,-1.7437,-1.74,-1.7364,-1.7349,-1.7301,-1.727,-1.722,-1.7181,-1.7147,-1.7092,-1.7019,-1.6984,-1.6955,-1.6932,-1.6934,-1.6934,-1.6936,-1.6943,-1.6885,-1.6945,-1.6945,-1.6944,-1.6944,-1.6944,0,-1.761,-1.7573,-1.7544,-1.7491,-1.7465,-1.7424,-1.7377,-1.7358,-1.7329,-1.7284,-1.725,-1.7207,-1.7168,-1.7105,-1.706,-1.7049,-1.7025,-1.7039,-1.7038,-1.703,-1.6967,-1.6969,-1.7059,-1.7059,-1.7059,-1.7059,-1.7059,-1.7059,-1.7648,-1.7632,-1.7597,-1.7561,-1.7522,-1.7491,-1.7467,-1.7433,-1.7397,-1.7353,-1.7321,-1.7281,-1.7228,-1.7178,-1.714,-1.7122,-1.7108,-1.7129,-1.7104,-1.7045,-1.7035,-1.7024,-1.7026,-1.7127,-1.7127,-1.7169,-1.717,-1.717]},{"header":{"parameterUnit":"m.s-1","parameterCategory":1,"la1":30.2991,"la2":30.254,"lo1":-89.0895,"lo2":-89.0444,"dy":0.0017,"dx":0.0017,"nx":28,"ny":28,"refTime":"2024-03-30T03:00:00:Z","depth":0,"parameterNumber":3,"parameterNumberName":"V-component_of_WINDS"},"data":[0,0,0,0,0,0,0,0,0,0,0,0,0,0,0,0,0,0,0,0,0,0,0,0,0,0,0,0,0,0,0,0,0,0,0,0,0,0,0,0,0,0,0,0,0,0,0,0,0,0,0,0,0,0,0,0,0,0,3.0071,3.0072,0,3.0151,3.0152,3.0153,3.0245,3.0246,3.0247,3.0249,3.0326,3.0327,3.0327,0,0,0,0,0,0,0,0,0,0,0,0,0,2.9995,2.9996,3.0071,3.0072,3.0073,3.0151,3.0152,3.0153,3.0244,3.0246,3.0248,3.0249,3.0326,3.0327,3.0327,0,0,0,0,0,0,0,0,0,0,0,0,0,3.0046,2.9996,3.007,3.0128,3.0134,3.0151,3.0152,3.0153,3.0244,3.0246,3.0248,3.025,3.0325,3.0326,3.0328,3.0293,0,0,3.0331,3.0332,0,0,0,0,0,0,0,0,3.0043,3.0049,3.0118,3.0124,3.0131,3.019,3.0154,3.02,3.0243,3.0202,3.0249,3.0251,3.0279,3.0284,3.0294,3.0296,3.03,3.0331,3.0332,3.0332,3.0333,0,0,0,0,0,0,0,3.004,3.0046,3.0102,3.0119,3.0127,3.0149,3.0159,3.0163,3.0227,3.0206,3.0213,3.0221,3.0282,3.0293,3.0297,3.0301,3.0331,3.0332,3.0333,3.0333,3.0282,3.028,0,0,0,0,0,0,3.0028,3.0043,3.01,3.0105,3.0091,3.0149,3.0159,3.0169,3.0228,3.0239,3.0219,3.0225,3.029,3.0295,3.03,3.0265,3.0332,3.0333,3.0334,3.0284,3.0282,3.028,0,0,0,0,0,0,3.0026,3.0032,3.0097,3.0076,3.0086,3.0148,3.0157,3.0169,3.018,3.0238,3.025,3.0218,3.0292,3.0298,3.0295,3.0269,3.0334,3.0335,3.0287,3.0283,3.0281,3.0194,0,0,0,0,0,0,3.0023,3.0031,3.0019,3.0075,3.0086,3.0091,3.0156,3.0169,3.0182,3.0191,3.024,3.025,3.0294,3.0293,3.0296,3.0272,3.0336,3.0289,3.0285,3.0282,3.0199,3.0188,3.0179,0,0,0,0,0,3.002,2.9989,3.0017,3.0024,3.0072,3.0089,3.0096,3.0148,3.018,3.0168,3.0206,3.0249,3.0271,3.0292,3.0296,3.0272,3.0291,3.0286,3.0282,3.0204,3.019,3.0179,0,0,0,0,0,0,2.9926,2.9997,3.003,3.0016,3.0046,3.0105,3.0091,3.0131,3.0152,3.0158,3.0221,3.0231,3.0221,3.0246,3.0268,3.0243,3.0288,3.0284,3.0227,3.0214,3.0204,3.0198,3.0337,0,0,0,0,0,2.9904,2.9912,2.9974,2.9956,2.997,3.0028,3.0037,3.0075,3.0108,3.0121,3.0158,3.0187,3.0202,3.0209,3.0225,3.0204,3.0217,3.0189,3.0179,3.017,3.0166,3.0159,3.0148,3.0264,3.0264,3.0265,0,0,2.9857,2.9898,2.9899,2.9938,2.9966,2.9973,3.0038,3.0042,3.0048,3.0121,3.0121,3.015,3.0187,3.0175,3.0172,3.0195,3.0137,3.0164,3.0157,3.0158,3.0153,3.0142,3.0132,3.0261,3.0262,3.0262,0,0,2.9777,2.9808,2.9798,2.9825,2.9868,2.9907,2.9904,2.9958,2.9981,2.9983,3.0038,3.0046,3.0068,3.0094,3.0109,3.0042,3.0083,3.0045,2.9991,2.9983,2.9974,2.9966,2.9944,2.9935,3.0041,3.0041,3.0041,0,2.9713,2.9728,2.9787,2.9789,2.9805,2.9874,2.9865,2.9888,2.9932,2.9942,2.9968,3.0001,3.003,3.0026,3.001,3.002,3.002,3.0039,2.9971,2.9964,2.9957,2.9936,2.9928,3.0036,3.0036,3.0037,3.0037,0,2.9649,2.9658,2.9644,2.9689,2.9704,2.9699,2.9757,2.9765,2.9803,2.9839,2.9841,2.988,2.9906,2.9908,2.9943,2.991,2.9924,2.996,3.0006,2.994,2.9922,2.9914,3.0029,3.0031,3.0032,3.0033,0,0,2.9509,2.9589,2.9583,2.9605,2.9658,2.9666,2.9666,2.9694,2.97,2.9729,2.9731,2.975,2.9785,2.9803,2.9842,2.9835,2.9781,2.9872,2.9874,2.9855,2.9749,2.9722,2.9711,2.9809,2.9808,2.9807,2.9746,0,2.9439,2.9444,2.9498,2.9488,2.9498,2.9566,2.9566,2.9598,2.9633,2.9646,2.9684,2.9698,2.9742,2.9753,2.9749,2.9788,2.9761,2.9794,2.9811,2.9811,2.98,2.9702,2.9673,2.9613,2.9739,2.9738,2.9737,0,2.9357,2.9384,2.9375,2.9432,2.9439,2.9438,2.9469,2.9481,2.952,2.9546,2.9568,2.9613,2.9617,2.9661,2.9667,2.9688,2.9699,2.972,2.9719,2.9722,2.977,2.9703,2.9596,2.9587,2.9726,2.9727,2.9728,0,2.9257,2.9292,2.9292,2.9309,2.9374,2.9373,2.94,2.9441,2.9455,2.9483,2.9493,2.9519,2.9533,2.9553,2.9604,2.9631,2.9605,2.9653,2.9627,2.9626,2.9618,2.9618,2.9511,2.9624,2.9624,2.9624,2.9624,0,2.9174,2.9166,2.9249,2.9249,2.9243,2.9306,2.9298,2.9331,2.9368,2.9375,2.9434,2.944,2.9508,2.9521,2.9561,2.9561,2.9567,2.9588,2.9599,2.9583,2.958,2.9591,2.9596,2.9622,2.9622,2.9623,2.9623,0,2.9061,2.9116,2.9121,2.9184,2.92,2.9193,2.9247,2.9249,2.9289,2.9298,2.9304,2.9365,2.9384,2.9438,2.947,2.9497,2.9486,2.9506,2.9473,2.948,2.9452,2.9454,2.9348,2.9338,2.9456,2.9455,2.9454,0,2.9004,2.9,2.9064,2.9075,2.91,2.9116,2.9132,2.9194,2.9208,2.9254,2.9251,2.9276,2.9299,2.9326,2.9373,2.9398,2.942,2.9381,2.9424,2.9409,2.9421,2.942,2.9421,2.9371,2.937,2.9368,2.9367,0,2.8898,2.8926,2.8948,2.898,2.8998,2.9025,2.9056,2.9061,2.9131,2.9144,2.9166,2.9184,2.9219,2.9242,2.9276,2.9303,2.9347,2.9354,2.935,2.9333,2.9315,2.9326,2.9449,2.9356,2.9357,2.9358,2.9358,2.9359,2.8812,2.8813,2.8859,2.8882,2.8913,2.8941,2.8947,2.8989,2.9009,2.9044,2.9079,2.9097,2.9139,2.9189,2.9213,2.9228,2.9251,2.9244,2.9242,2.924,2.9233,2.9313,2.9234,2.9234,2.9235,2.9235,2.9235,0,2.871,2.8744,2.8765,2.8808,2.8826,2.8868,2.8905,2.8917,2.8933,2.8969,2.8992,2.9017,2.9042,2.9092,2.912,2.9123,2.9144,2.9128,2.9129,2.9135,2.921,2.9212,2.9111,2.9111,2.9111,2.9111,2.9111,2.9111,2.8659,2.8664,2.8698,2.8719,2.8753,2.8773,2.879,2.8817,2.8846,2.8873,2.8895,2.8928,2.897,2.9003,2.9027,2.9041,2.9049,2.9027,2.9048,2.9117,2.9129,2.914,2.9142,2.9028,2.9028,2.8971,2.8971,2.897]}]]